Location: Newark
(41.4333°N, 15.1167°E)
Time: 15:47:27
(UTC+00:00)

Hubble Space Telescope - Visible Passes

Search period start: 08 December 2019 00:00
Search period end: 18 December 2019 00:00
Orbit: 536 x 540 km, 28.5° (Epoch: 07 December)

Date Brightness Start Highest point End Pass type
(mag) Time Alt. Az. Time Alt. Az. Time Alt. Az.
14 Dec 3.8 05:19:38 10° S 05:20:18 10° SSE 05:20:58 10° SSE visible
15 Dec 3.6 05:08:11 10° S 05:09:33 11° S 05:10:56 10° SSE visible
16 Dec 3.4 04:57:05 10° SSW 04:58:49 12° S 05:00:33 10° SSE visible
17 Dec 3.4 04:46:09 10° SSW 04:48:05 13° S 04:50:01 10° SSE visible
